• In Belarus
  • List of Countries
  • For 7 days
  • Water Temperature
  • Satellite Maps
  • Weather Map
  • Weather Widgets
  • user-avatar
    Login

    Hourly Weather Giumri

    Today, 21 July, Saturday

    Time Temperature Precipitation Wind Pressure Humidity
    00:00 +16°C° 0 mm 3 mps 631 mmHg 81%
    01:00 +16°C° 0 mm 2 mps 631 mmHg 82%
    02:00 +16°C° 0 mm 2 mps 631 mmHg 84%
    03:00 +15°C° 0 mm 2 mps 630 mmHg 86%
    04:00 +15°C° 0 mm 2 mps 630 mmHg 85%
    05:00 +16°C° 0 mm 2 mps 631 mmHg 84%
    06:00 +16°C° 0 mm 2 mps 631 mmHg 83%
    07:00 +18°C° 0 mm 2 mps 632 mmHg 75%
    08:00 +20°C° 0 mm 2 mps 632 mmHg 68%
    09:00 +23°C° 0 mm 2 mps 633 mmHg 63%
    10:00 +24°C° 0.4 mm 2 mps 633 mmHg 59%
    11:00 +25°C° 0.4 mm 2 mps 633 mmHg 56%
    12:00 +26°C° 0.4 mm 2 mps 633 mmHg 53%
    13:00 +26°C° 0.8 mm 2 mps 633 mmHg 53%
    14:00 +26°C° 0.8 mm 2 mps 633 mmHg 53%
    15:00 +26°C° 0.8 mm 2 mps 633 mmHg 53%
    16:00 +26°C° 0.7 mm 3 mps 633 mmHg 57%
    17:00 +25°C° 0.7 mm 3 mps 633 mmHg 61%
    18:00 +24°C° 0.7 mm 3 mps 632 mmHg 65%
    19:00 +21°C° 0.6 mm 3 mps 632 mmHg 72%
    20:00 +19°C° 0.6 mm 3 mps 632 mmHg 79%
    21:00 +18°C° 0.6 mm 2 mps 632 mmHg 86%
    22:00 +17°C° 0.3 mm 2 mps 632 mmHg 87%
    23:00 +17°C° 0.3 mm 2 mps 632 mmHg 88%

    Tomorrow, 22 July, Sunday

    Time Temperature Precipitation Wind Pressure Humidity
    00:00 +16°C° 0.3 mm 2 mps 632 mmHg 90%
    01:00 +16°C° 0.2 mm 2 mps 632 mmHg 91%
    02:00 +15°C° 0.2 mm 2 mps 632 mmHg 91%
    03:00 +15°C° 0.2 mm 2 mps 632 mmHg 92%
    04:00 +15°C° 0.2 mm 2 mps 632 mmHg 91%
    05:00 +15°C° 0.2 mm 2 mps 632 mmHg 90%
    06:00 +16°C° 0.2 mm 2 mps 632 mmHg 89%
    07:00 +18°C° 0 mm 2 mps 632 mmHg 82%
    08:00 +20°C° 0 mm 2 mps 633 mmHg 75%
    09:00 +23°C° 0 mm 2 mps 633 mmHg 68%
    10:00 +23°C° 0.5 mm 2 mps 633 mmHg 64%
    11:00 +24°C° 0.5 mm 2 mps 633 mmHg 61%
    12:00 +25°C° 0.5 mm 2 mps 633 mmHg 57%
    13:00 +26°C° 0.6 mm 2 mps 633 mmHg 57%
    14:00 +26°C° 0.6 mm 3 mps 633 mmHg 56%
    15:00 +26°C° 0.6 mm 3 mps 632 mmHg 56%
    16:00 +25°C° 0.5 mm 3 mps 632 mmHg 59%
    17:00 +25°C° 0.5 mm 3 mps 632 mmHg 63%
    18:00 +24°C° 0.5 mm 3 mps 632 mmHg 66%
    19:00 +21°C° 0.6 mm 3 mps 632 mmHg 73%
    20:00 +20°C° 0.6 mm 2 mps 632 mmHg 79%
    21:00 +18°C° 0.6 mm 2 mps 631 mmHg 85%
    22:00 +17°C° 0.4 mm 2 mps 631 mmHg 88%
    23:00 +17°C° 0.4 mm 2 mps 631 mmHg 90%

    Day after tomorrow, 23 July, Monday

    Time Temperature Precipitation Wind Pressure Humidity
    00:00 +16°C° 0.4 mm 2 mps 631 mmHg 93%
    01:00 +16°C° 0.2 mm 2 mps 631 mmHg 94%
    02:00 +16°C° 0.2 mm 2 mps 631 mmHg 95%
    03:00 +16°C° 0.2 mm 2 mps 631 mmHg 96%
    04:00 +16°C° 0.1 mm 2 mps 631 mmHg 95%
    05:00 +17°C° 0.1 mm 2 mps 631 mmHg 94%
    06:00 +17°C° 0.1 mm 2 mps 631 mmHg 93%
    07:00 +18°C° 0 mm 2 mps 631 mmHg 86%
    08:00 +20°C° 0 mm 2 mps 631 mmHg 79%
    09:00 +21°C° 0 mm 2 mps 632 mmHg 72%
    10:00 +23°C° 0.6 mm 2 mps 632 mmHg 67%
    11:00 +24°C° 0.6 mm 2 mps 632 mmHg 62%
    12:00 +25°C° 0.6 mm 2 mps 631 mmHg 57%
    13:00 +26°C° 1 mm 2 mps 631 mmHg 56%
    14:00 +26°C° 1 mm 2 mps 631 mmHg 54%
    15:00 +27°C° 1 mm 2 mps 631 mmHg 53%
    16:00 +25°C° 1.8 mm 2 mps 631 mmHg 58%
    17:00 +24°C° 1.8 mm 2 mps 631 mmHg 63%
    18:00 +23°C° 1.8 mm 2 mps 630 mmHg 68%
    19:00 +21°C° 0.9 mm 2 mps 630 mmHg 73%
    20:00 +19°C° 0.9 mm 2 mps 631 mmHg 77%
    21:00 +19°C° 0.9 mm 1 mps 631 mmHg 81%
    22:00 +18°C° 0.8 mm 1 mps 631 mmHg 83%
    23:00 +18°C° 0.8 mm 1 mps 631 mmHg 85%

    24 July, Tuesday

    Time Temperature Precipitation Wind Pressure Humidity
    00:00 +16°C° 0.8 mm 1 mps 631 mmHg 87%
    01:00 +16°C° 0.7 mm 1 mps 630 mmHg 88%
    02:00 +16°C° 0.7 mm 1 mps 630 mmHg 89%
    03:00 +16°C° 0.7 mm 1 mps 630 mmHg 90%
    04:00 +16°C° 0.3 mm 1 mps 630 mmHg 89%
    05:00 +16°C° 0.3 mm 1 mps 630 mmHg 88%
    06:00 +18°C° 0.3 mm 1 mps 631 mmHg 87%
    07:00 +20°C° 0.1 mm 1 mps 631 mmHg 77%
    08:00 +21°C° 0.1 mm 2 mps 632 mmHg 67%
    09:00 +24°C° 0.1 mm 2 mps 632 mmHg 58%
    10:00 +26°C° 0.2 mm 2 mps 632 mmHg 53%
    11:00 +27°C° 0.2 mm 3 mps 633 mmHg 48%
    12:00 +29°C° 0.2 mm 3 mps 633 mmHg 43%
    13:00 +29°C° 0 mm 3 mps 633 mmHg 43%
    14:00 +29°C° 0 mm 3 mps 632 mmHg 43%
    15:00 +29°C° 0 mm 2 mps 632 mmHg 43%
    16:00 +28°C° 0.2 mm 2 mps 632 mmHg 47%
    17:00 +28°C° 0.2 mm 2 mps 632 mmHg 51%
    18:00 +27°C° 0.2 mm 2 mps 632 mmHg 54%
    19:00 +25°C° 0.1 mm 2 mps 632 mmHg 61%
    20:00 +23°C° 0.1 mm 2 mps 632 mmHg 67%
    21:00 +20°C° 0.1 mm 2 mps 632 mmHg 73%
    22:00 +19°C° 0 mm 2 mps 632 mmHg 76%
    23:00 +19°C° 0 mm 2 mps 632 mmHg 79%

    25 July, Wednesday

    Time Temperature Precipitation Wind Pressure Humidity
    00:00 +18°C° 0 mm 2 mps 632 mmHg 82%
    01:00 +19°C° 0 mm 1 mps 632 mmHg 82%
    02:00 +19°C° 0 mm 1 mps 632 mmHg 83%
    03:00 +18°C° 0 mm 1 mps 631 mmHg 84%
    04:00 +19°C° 0 mm 1 mps 632 mmHg 82%
    05:00 +19°C° 0 mm 1 mps 632 mmHg 80%
    06:00 +19°C° 0 mm 1 mps 632 mmHg 79%
    07:00 +21°C° 0 mm 2 mps 633 mmHg 69%
    08:00 +24°C° 0 mm 2 mps 633 mmHg 59%
    09:00 +27°C° 0 mm 2 mps 634 mmHg 48%
    10:00 +28°C° 0 mm 3 mps 634 mmHg 44%
    11:00 +30°C° 0 mm 3 mps 634 mmHg 40%
    12:00 +31°C° 0 mm 3 mps 634 mmHg 36%
    13:00 +33°C° 0 mm 3 mps 634 mmHg 36%
    14:00 +33°C° 0 mm 3 mps 634 mmHg 35%
    15:00 +33°C° 0 mm 3 mps 633 mmHg 34%
    16:00 +31°C° 0 mm 3 mps 633 mmHg 40%
    17:00 +30°C° 0 mm 3 mps 633 mmHg 45%
    18:00 +29°C° 0 mm 3 mps 632 mmHg 50%
    19:00 +27°C° 0 mm 3 mps 632 mmHg 58%
    20:00 +25°C° 0 mm 2 mps 632 mmHg 66%
    21:00 +21°C° 0 mm 2 mps 632 mmHg 74%
    22:00 +21°C° 0 mm 2 mps 632 mmHg 75%
    23:00 +20°C° 0 mm 2 mps 632 mmHg 76%

    26 July, Thursday

    Time Temperature Precipitation Wind Pressure Humidity
    00:00 +19°C° 0 mm 2 mps 632 mmHg 77%
    01:00 +19°C° 0 mm 2 mps 632 mmHg 78%
    02:00 +19°C° 0 mm 2 mps 632 mmHg 80%
    03:00 +18°C° 0 mm 2 mps 632 mmHg 82%
    04:00 +19°C° 0 mm 2 mps 632 mmHg 81%
    05:00 +19°C° 0 mm 2 mps 632 mmHg 79%
    06:00 +19°C° 0 mm 2 mps 633 mmHg 78%
    07:00 +23°C° 0 mm 2 mps 633 mmHg 69%
    08:00 +25°C° 0 mm 2 mps 634 mmHg 60%
    09:00 +28°C° 0 mm 2 mps 635 mmHg 51%
    10:00 +29°C° 0 mm 2 mps 635 mmHg 47%
    11:00 +30°C° 0 mm 3 mps 635 mmHg 43%
    12:00 +33°C° 0 mm 3 mps 635 mmHg 40%
    13:00 +33°C° 0 mm 3 mps 635 mmHg 39%
    14:00 +34°C° 0 mm 3 mps 634 mmHg 38%
    15:00 +34°C° 0 mm 3 mps 634 mmHg 38%
    16:00 +33°C° 0.1 mm 3 mps 634 mmHg 44%
    17:00 +31°C° 0.1 mm 3 mps 634 mmHg 50%
    18:00 +29°C° 0.1 mm 4 mps 633 mmHg 56%
    19:00 +27°C° 0 mm 3 mps 633 mmHg 63%
    20:00 +25°C° 0 mm 3 mps 633 mmHg 70%
    21:00 +21°C° 0 mm 3 mps 633 mmHg 77%
    22:00 +21°C° 0 mm 3 mps 633 mmHg 79%
    23:00 +20°C° 0 mm 3 mps 633 mmHg 81%
    Show more